Year,Month,Day,Hour,Minute,Value (Times are PST for windgust in km/hr)
2020,03,03,00,00,1.60
2020,03,03,00,01,1.60
2020,03,03,00,04,1.60
2020,03,03,00,05,1.60
2020,03,03,00,06,1.60
2020,03,03,00,07,1.60
2020,03,03,00,08,1.60
2020,03,03,00,09,1.60
2020,03,03,00,10,1.60
2020,03,03,00,11,1.60
2020,03,03,00,12,1.60
2020,03,03,00,13,1.60
2020,03,03,00,14,1.60
2020,03,03,00,15,4.80
2020,03,03,00,16,3.20
2020,03,03,00,17,1.60
2020,03,03,00,18,4.80
2020,03,03,00,19,1.60
2020,03,03,00,20,4.80
2020,03,03,00,21,9.60
2020,03,03,00,22,6.40
2020,03,03,00,23,4.80
2020,03,03,00,24,1.60
2020,03,03,00,25,4.80
2020,03,03,00,26,4.80
2020,03,03,00,27,6.40
2020,03,03,00,28,4.80
2020,03,03,00,29,4.80
2020,03,03,00,30,8.10
2020,03,03,00,31,6.40
2020,03,03,00,32,6.40
2020,03,03,00,33,8.10
2020,03,03,00,34,4.80
2020,03,03,00,35,6.40
2020,03,03,00,36,6.40
2020,03,03,00,37,6.40
2020,03,03,00,38,8.10
2020,03,03,00,39,8.10
2020,03,03,00,40,8.10
2020,03,03,00,41,4.80
2020,03,03,00,42,4.80
2020,03,03,00,43,6.40
2020,03,03,00,44,4.80
2020,03,03,00,45,6.40
2020,03,03,00,46,4.80
2020,03,03,00,47,3.20
2020,03,03,00,48,4.80
2020,03,03,00,49,4.80
2020,03,03,00,50,4.80
2020,03,03,00,51,6.40
2020,03,03,00,52,1.60
2020,03,03,00,53,3.20
2020,03,03,00,54,3.20
2020,03,03,00,55,1.60
2020,03,03,00,56,3.20
2020,03,03,00,57,4.80
2020,03,03,00,58,4.80
2020,03,03,00,59,1.60
2020,03,03,01,00,6.40
2020,03,03,01,01,3.20
2020,03,03,01,02,4.80
2020,03,03,01,03,4.80
2020,03,03,01,04,4.80
2020,03,03,01,05,8.10
2020,03,03,01,06,6.40
2020,03,03,01,07,3.20
2020,03,03,01,08,6.40
2020,03,03,01,09,4.80
2020,03,03,01,10,3.20
2020,03,03,01,11,3.20
2020,03,03,01,12,1.60
2020,03,03,01,13,1.60
2020,03,03,01,14,8.10
2020,03,03,01,15,6.40
2020,03,03,01,16,4.80
2020,03,03,01,17,3.20
2020,03,03,01,18,4.80
2020,03,03,01,19,6.40
2020,03,03,01,21,1.60
2020,03,03,01,22,3.20
2020,03,03,01,23,3.20
2020,03,03,01,24,4.80
2020,03,03,01,25,3.20
2020,03,03,01,26,1.60
2020,03,03,01,27,8.10
2020,03,03,01,28,9.60
2020,03,03,01,29,3.20
2020,03,03,01,30,8.10
2020,03,03,01,31,1.60
2020,03,03,01,32,3.20
2020,03,03,01,33,4.80
2020,03,03,01,34,8.10
2020,03,03,01,35,6.40
2020,03,03,01,36,3.20
2020,03,03,01,37,6.40
2020,03,03,01,38,8.10
2020,03,03,01,39,8.10
2020,03,03,01,40,6.40
2020,03,03,01,41,4.80
2020,03,03,01,42,3.20
2020,03,03,01,43,6.40
2020,03,03,01,44,4.80
2020,03,03,01,45,6.40
2020,03,03,01,46,4.80
2020,03,03,01,47,3.20
2020,03,03,01,48,6.40
2020,03,03,01,49,3.20
2020,03,03,01,50,8.10
2020,03,03,01,51,4.80
2020,03,03,01,52,8.10
2020,03,03,01,53,8.10
2020,03,03,01,54,6.40
2020,03,03,01,55,6.40
2020,03,03,01,56,6.40
2020,03,03,01,57,6.40
2020,03,03,01,58,3.20
2020,03,03,01,59,1.60
2020,03,03,02,00,8.10
2020,03,03,02,01,1.60
2020,03,03,02,02,3.20
2020,03,03,02,03,3.20
2020,03,03,02,04,3.20
2020,03,03,02,05,1.60
2020,03,03,02,06,3.20
2020,03,03,02,07,6.40
2020,03,03,02,08,4.80
2020,03,03,02,09,1.60
2020,03,03,02,10,1.60
2020,03,03,02,11,3.20
2020,03,03,02,12,1.60
2020,03,03,02,13,3.20
2020,03,03,02,14,6.40
2020,03,03,02,15,8.10
2020,03,03,02,16,3.20
2020,03,03,02,17,3.20
2020,03,03,02,18,1.60
2020,03,03,02,19,4.80
2020,03,03,02,20,8.10
2020,03,03,02,21,8.10
2020,03,03,02,22,3.20
2020,03,03,02,23,8.10
2020,03,03,02,24,1.60
2020,03,03,02,25,6.40
2020,03,03,02,26,8.10
2020,03,03,02,27,6.40
2020,03,03,02,28,8.10
2020,03,03,02,29,4.80
2020,03,03,02,30,6.40
2020,03,03,02,31,6.40
2020,03,03,02,32,8.10
2020,03,03,02,33,4.80
2020,03,03,02,34,6.40
2020,03,03,02,35,4.80
2020,03,03,02,36,3.20
2020,03,03,02,37,3.20
2020,03,03,02,38,3.20
2020,03,03,02,39,8.10
2020,03,03,02,40,6.40
2020,03,03,02,41,4.80
2020,03,03,02,42,3.20
2020,03,03,02,43,3.20
2020,03,03,02,44,1.60
2020,03,03,02,47,1.60
2020,03,03,02,49,3.20
2020,03,03,02,50,1.60
2020,03,03,02,52,1.60
2020,03,03,03,01,1.60
2020,03,03,03,10,1.60
2020,03,03,03,15,1.60
2020,03,03,03,16,1.60
2020,03,03,03,17,1.60
2020,03,03,03,20,3.20
2020,03,03,03,21,3.20
2020,03,03,03,22,3.20
2020,03,03,03,23,4.80
2020,03,03,03,24,1.60
2020,03,03,03,28,1.60
2020,03,03,03,30,1.60
2020,03,03,03,31,1.60
2020,03,03,03,33,3.20
2020,03,03,03,34,3.20
2020,03,03,03,35,3.20
2020,03,03,03,36,3.20
2020,03,03,03,37,3.20
2020,03,03,03,38,1.60
2020,03,03,03,40,4.80
2020,03,03,03,41,3.20
2020,03,03,03,42,1.60
2020,03,03,03,43,3.20
2020,03,03,03,44,1.60
2020,03,03,04,04,3.20
2020,03,03,04,06,1.60
2020,03,03,04,07,1.60
2020,03,03,04,08,1.60
2020,03,03,04,09,4.80
2020,03,03,04,10,4.80
2020,03,03,04,11,1.60
2020,03,03,04,16,3.20
2020,03,03,04,17,6.40
2020,03,03,04,18,6.40
2020,03,03,04,19,6.40
2020,03,03,04,20,3.20
2020,03,03,04,21,1.60
2020,03,03,04,22,4.80
2020,03,03,04,23,4.80
2020,03,03,04,24,3.20
2020,03,03,04,25,3.20
2020,03,03,04,26,3.20
2020,03,03,04,27,1.60
2020,03,03,04,29,1.60
2020,03,03,04,31,1.60
2020,03,03,04,41,1.60
2020,03,03,04,44,1.60
2020,03,03,08,27,4.80
2020,03,03,08,28,8.10
2020,03,03,08,29,3.20
2020,03,03,08,30,4.80
2020,03,03,08,31,4.80
2020,03,03,08,32,6.40
2020,03,03,08,33,6.40
2020,03,03,08,34,6.40
2020,03,03,08,35,6.40
2020,03,03,08,36,8.10
2020,03,03,08,37,6.40
2020,03,03,08,38,4.80
2020,03,03,08,39,4.80
2020,03,03,08,40,8.10
2020,03,03,08,41,6.40
2020,03,03,08,42,6.40
2020,03,03,08,43,4.80
2020,03,03,08,44,6.40
2020,03,03,08,45,8.10
2020,03,03,08,46,3.20
2020,03,03,08,47,3.20
2020,03,03,08,48,4.80
2020,03,03,08,49,4.80
2020,03,03,08,50,4.80
2020,03,03,08,51,4.80
2020,03,03,08,52,3.20
2020,03,03,08,53,6.40
2020,03,03,08,54,4.80
2020,03,03,08,55,3.20
2020,03,03,08,56,3.20
2020,03,03,08,57,6.40
2020,03,03,08,58,1.60
2020,03,03,08,59,6.40
2020,03,03,09,00,4.80
2020,03,03,09,01,1.60
2020,03,03,09,02,6.40
2020,03,03,09,03,4.80
2020,03,03,09,04,4.80
2020,03,03,09,05,9.60
2020,03,03,09,06,4.80
2020,03,03,09,07,6.40
2020,03,03,09,08,9.60
2020,03,03,09,09,8.10
2020,03,03,09,10,11.30
2020,03,03,09,11,9.60
2020,03,03,09,12,6.40
2020,03,03,09,13,3.20
2020,03,03,09,14,6.40
2020,03,03,09,15,8.10
2020,03,03,09,16,8.10
2020,03,03,09,17,11.30
2020,03,03,09,18,8.10
2020,03,03,09,19,9.60
2020,03,03,09,20,4.80
2020,03,03,09,21,11.30
2020,03,03,09,22,14.50
2020,03,03,09,23,14.50
2020,03,03,09,24,11.30
2020,03,03,09,25,11.30
2020,03,03,09,26,12.90
2020,03,03,09,27,11.30
2020,03,03,09,28,9.60
2020,03,03,09,29,11.30
2020,03,03,09,30,9.60
2020,03,03,09,31,9.60
2020,03,03,09,32,11.30
2020,03,03,09,33,8.10
2020,03,03,09,34,14.50
2020,03,03,09,35,9.60
2020,03,03,09,36,11.30
2020,03,03,09,37,11.30
2020,03,03,09,38,9.60
2020,03,03,09,39,6.40
2020,03,03,09,40,9.60
2020,03,03,09,41,9.60
2020,03,03,09,42,16.10
2020,03,03,09,43,9.60
2020,03,03,09,44,6.40
2020,03,03,09,45,6.40
2020,03,03,09,46,6.40
2020,03,03,09,47,6.40
2020,03,03,09,48,19.30
2020,03,03,09,49,9.60
2020,03,03,09,50,11.30
2020,03,03,09,51,11.30
2020,03,03,09,52,4.80
2020,03,03,09,53,9.60
2020,03,03,09,54,8.10
2020,03,03,09,55,8.10
2020,03,03,09,56,4.80
2020,03,03,09,57,6.40
2020,03,03,09,58,6.40
2020,03,03,09,59,8.10
2020,03,03,10,00,6.40
2020,03,03,10,01,6.40
2020,03,03,10,02,6.40
2020,03,03,10,03,8.10
2020,03,03,10,04,4.80
2020,03,03,10,05,6.40
2020,03,03,10,06,8.10
2020,03,03,10,07,9.60
2020,03,03,10,08,8.10
2020,03,03,10,09,8.10
2020,03,03,10,10,12.90
2020,03,03,10,11,9.60
2020,03,03,10,12,16.10
2020,03,03,10,13,9.60
2020,03,03,10,14,9.60
2020,03,03,10,15,9.60
2020,03,03,10,16,16.10
2020,03,03,10,17,9.60
2020,03,03,10,18,11.30
2020,03,03,10,19,9.60
2020,03,03,10,20,6.40
2020,03,03,10,21,8.10
2020,03,03,10,22,8.10
2020,03,03,10,23,8.10
2020,03,03,10,24,6.40
2020,03,03,10,25,8.10
2020,03,03,10,26,6.40
2020,03,03,10,27,11.30
2020,03,03,10,28,9.60
2020,03,03,10,29,6.40
2020,03,03,10,30,6.40
2020,03,03,10,31,8.10
2020,03,03,10,32,11.30
2020,03,03,10,33,17.70
2020,03,03,10,34,11.30
2020,03,03,10,35,9.60
2020,03,03,10,36,11.30
2020,03,03,10,37,11.30
2020,03,03,10,38,11.30
2020,03,03,10,39,12.90
2020,03,03,10,40,14.50
2020,03,03,10,41,14.50
2020,03,03,10,42,11.30
2020,03,03,10,43,19.30
2020,03,03,10,44,12.90
2020,03,03,10,45,14.50
2020,03,03,10,46,22.50
2020,03,03,10,47,12.90
2020,03,03,10,48,9.60
2020,03,03,10,49,11.30
2020,03,03,10,50,14.50
2020,03,03,10,51,16.10
2020,03,03,10,52,17.70
2020,03,03,10,53,17.70
2020,03,03,10,54,14.50
2020,03,03,10,55,11.30
2020,03,03,10,56,11.30
2020,03,03,10,57,9.60
2020,03,03,10,58,16.10
2020,03,03,10,59,8.10
2020,03,03,11,00,9.60
2020,03,03,11,01,9.60
2020,03,03,11,02,9.60
2020,03,03,11,03,12.90
2020,03,03,11,04,16.10
2020,03,03,11,05,9.60
2020,03,03,11,06,6.40
2020,03,03,11,07,6.40
2020,03,03,11,08,6.40
2020,03,03,11,09,14.50
2020,03,03,11,10,4.80
2020,03,03,11,11,4.80
2020,03,03,11,12,3.20
2020,03,03,11,13,4.80
2020,03,03,11,14,6.40
2020,03,03,11,15,11.30
2020,03,03,11,16,8.10
2020,03,03,11,17,8.10
2020,03,03,11,18,8.10
2020,03,03,11,19,8.10
2020,03,03,11,20,9.60
2020,03,03,11,21,9.60
2020,03,03,11,22,8.10
2020,03,03,11,23,9.60
2020,03,03,11,24,9.60
2020,03,03,11,25,8.10
2020,03,03,11,26,9.60
2020,03,03,11,27,3.20
2020,03,03,11,28,4.80
2020,03,03,11,29,4.80
2020,03,03,11,30,6.40
2020,03,03,11,31,4.80
2020,03,03,11,32,4.80
2020,03,03,11,33,3.20
2020,03,03,11,34,4.80
2020,03,03,11,35,6.40
2020,03,03,11,36,6.40
2020,03,03,11,37,3.20
2020,03,03,11,38,4.80
2020,03,03,11,39,4.80
2020,03,03,11,40,6.40
2020,03,03,11,41,3.20
2020,03,03,11,42,6.40
2020,03,03,11,43,4.80
2020,03,03,11,44,4.80
2020,03,03,11,45,4.80
2020,03,03,11,46,4.80
2020,03,03,11,47,4.80
2020,03,03,11,48,1.60
2020,03,03,11,49,1.60
2020,03,03,11,50,4.80
2020,03,03,11,51,4.80
2020,03,03,11,52,4.80
2020,03,03,11,53,4.80
2020,03,03,11,54,1.60
2020,03,03,11,55,3.20
2020,03,03,11,56,3.20
2020,03,03,11,57,6.40
2020,03,03,11,58,4.80
2020,03,03,11,59,3.20
2020,03,03,12,00,4.80
2020,03,03,12,01,3.20
2020,03,03,12,02,4.80
2020,03,03,12,03,3.20
2020,03,03,12,04,4.80
2020,03,03,12,05,6.40
2020,03,03,12,06,6.40
2020,03,03,12,07,4.80
2020,03,03,12,08,6.40
2020,03,03,12,09,4.80
2020,03,03,12,10,4.80
2020,03,03,12,11,3.20
2020,03,03,12,12,4.80
2020,03,03,12,13,8.10
2020,03,03,12,14,6.40
2020,03,03,12,15,6.40
2020,03,03,12,16,4.80
2020,03,03,12,17,6.40
2020,03,03,12,18,4.80
2020,03,03,12,19,6.40
2020,03,03,12,20,6.40
2020,03,03,12,21,4.80
2020,03,03,12,22,4.80
2020,03,03,12,23,4.80
2020,03,03,12,24,8.10
2020,03,03,12,25,6.40
2020,03,03,12,26,8.10
2020,03,03,12,27,4.80
2020,03,03,12,28,8.10
2020,03,03,12,29,8.10
2020,03,03,12,30,6.40
2020,03,03,12,31,6.40
2020,03,03,12,32,1.60
2020,03,03,12,33,1.60
2020,03,03,12,34,4.80
2020,03,03,12,35,4.80
2020,03,03,12,36,3.20
2020,03,03,12,37,6.40
2020,03,03,12,38,1.60
2020,03,03,12,39,1.60
2020,03,03,12,42,1.60
2020,03,03,12,44,3.20
2020,03,03,12,45,3.20
2020,03,03,12,47,3.20
2020,03,03,12,48,6.40
2020,03,03,12,49,9.60
2020,03,03,12,50,6.40
2020,03,03,12,51,6.40
2020,03,03,12,52,9.60
2020,03,03,12,53,11.30
2020,03,03,12,54,9.60
2020,03,03,12,55,9.60
2020,03,03,12,56,9.60
2020,03,03,12,57,9.60
2020,03,03,12,58,8.10
2020,03,03,12,59,8.10
2020,03,03,13,00,14.50
2020,03,03,13,01,11.30
2020,03,03,13,02,8.10
2020,03,03,13,03,9.60
2020,03,03,13,04,9.60
2020,03,03,13,05,8.10
2020,03,03,13,06,11.30
2020,03,03,13,07,9.60
2020,03,03,13,08,8.10
2020,03,03,13,09,4.80
2020,03,03,13,10,3.20
2020,03,03,13,11,4.80
2020,03,03,13,12,8.10
2020,03,03,13,13,8.10
2020,03,03,13,14,6.40
2020,03,03,13,15,6.40
2020,03,03,13,16,3.20
2020,03,03,13,17,1.60
2020,03,03,13,18,3.20
2020,03,03,13,19,3.20
2020,03,03,13,20,3.20
2020,03,03,13,21,1.60
2020,03,03,13,22,1.60
2020,03,03,13,23,4.80
2020,03,03,13,24,6.40
2020,03,03,13,25,4.80
2020,03,03,13,26,3.20
2020,03,03,13,27,1.60
2020,03,03,13,28,4.80
2020,03,03,13,29,3.20
2020,03,03,13,30,4.80
2020,03,03,13,31,6.40
2020,03,03,13,32,3.20
2020,03,03,13,33,1.60
2020,03,03,13,34,4.80
2020,03,03,13,35,6.40
2020,03,03,13,36,3.20
2020,03,03,13,37,6.40
2020,03,03,13,38,6.40
2020,03,03,13,39,9.60
2020,03,03,13,40,9.60
2020,03,03,13,41,6.40
2020,03,03,13,42,6.40
2020,03,03,13,43,6.40
2020,03,03,13,44,4.80
2020,03,03,13,45,3.20
2020,03,03,13,46,4.80
2020,03,03,13,47,1.60
2020,03,03,13,48,1.60
2020,03,03,13,49,1.60
2020,03,03,13,50,3.20
2020,03,03,13,51,3.20
2020,03,03,13,52,3.20
2020,03,03,13,53,3.20
2020,03,03,13,54,4.80
2020,03,03,13,55,3.20
2020,03,03,13,56,3.20
2020,03,03,13,57,3.20
2020,03,03,13,58,1.60
2020,03,03,13,59,4.80
2020,03,03,14,00,1.60
2020,03,03,14,01,1.60
2020,03,03,14,02,3.20
2020,03,03,14,03,4.80
2020,03,03,14,04,3.20
2020,03,03,14,06,3.20
2020,03,03,14,07,6.40
2020,03,03,14,08,4.80
2020,03,03,14,09,1.60
2020,03,03,14,10,1.60
2020,03,03,14,11,4.80
2020,03,03,14,12,3.20
2020,03,03,14,13,3.20
2020,03,03,14,14,3.20
2020,03,03,14,16,4.80
2020,03,03,14,17,3.20
2020,03,03,14,18,3.20
2020,03,03,14,19,3.20
2020,03,03,14,20,3.20
2020,03,03,14,22,4.80
2020,03,03,14,23,3.20
2020,03,03,14,24,1.60
2020,03,03,14,28,4.80
2020,03,03,14,29,6.40
2020,03,03,14,30,1.60
2020,03,03,14,31,4.80
2020,03,03,14,32,3.20
2020,03,03,14,33,4.80
2020,03,03,14,34,6.40
2020,03,03,14,35,4.80
2020,03,03,14,36,4.80
2020,03,03,14,37,8.10
2020,03,03,14,38,1.60
2020,03,03,14,39,3.20
2020,03,03,14,40,1.60
2020,03,03,14,41,3.20
2020,03,03,14,42,4.80
2020,03,03,14,43,8.10
2020,03,03,14,44,6.40
2020,03,03,14,45,6.40
2020,03,03,14,46,6.40
2020,03,03,14,47,6.40
2020,03,03,14,48,3.20
2020,03,03,14,49,4.80
2020,03,03,14,50,3.20
2020,03,03,14,51,4.80
2020,03,03,14,52,4.80
2020,03,03,14,53,3.20
2020,03,03,14,54,6.40
2020,03,03,14,55,6.40
2020,03,03,14,56,11.30
2020,03,03,14,57,4.80
2020,03,03,14,58,11.30
2020,03,03,14,59,9.60
2020,03,03,15,00,9.60
2020,03,03,15,01,6.40
2020,03,03,15,02,8.10
2020,03,03,15,03,4.80
2020,03,03,15,04,6.40
2020,03,03,15,05,6.40
2020,03,03,15,06,8.10
2020,03,03,15,07,11.30
2020,03,03,15,08,11.30
2020,03,03,15,09,4.80
2020,03,03,15,10,11.30
2020,03,03,15,11,9.60
2020,03,03,15,12,8.10
2020,03,03,15,13,8.10
2020,03,03,15,14,6.40
2020,03,03,15,15,6.40
2020,03,03,15,16,8.10
2020,03,03,15,17,6.40
2020,03,03,15,18,6.40
2020,03,03,15,19,4.80
2020,03,03,15,20,8.10
2020,03,03,15,21,6.40
2020,03,03,15,22,1.60
2020,03,03,15,23,9.60
2020,03,03,15,24,9.60
2020,03,03,15,25,11.30
2020,03,03,15,26,16.10
2020,03,03,15,27,8.10
2020,03,03,15,28,9.60
2020,03,03,15,29,9.60
2020,03,03,15,30,1.60
2020,03,03,15,31,1.60
2020,03,03,15,32,1.60
2020,03,03,15,33,1.60
2020,03,03,15,34,3.20
2020,03,03,15,36,1.60
2020,03,03,15,37,1.60
2020,03,03,15,38,1.60
2020,03,03,15,39,3.20
2020,03,03,15,40,4.80
2020,03,03,15,41,4.80
2020,03,03,15,42,4.80
2020,03,03,15,43,4.80
2020,03,03,15,44,3.20
2020,03,03,15,45,3.20
2020,03,03,15,46,3.20
2020,03,03,15,47,3.20
2020,03,03,15,48,1.60
2020,03,03,15,51,3.20
2020,03,03,15,52,3.20
2020,03,03,15,53,3.20
2020,03,03,15,54,8.10
2020,03,03,15,55,4.80
2020,03,03,15,56,3.20
2020,03,03,15,57,1.60
2020,03,03,15,58,4.80
2020,03,03,15,59,6.40
2020,03,03,16,00,4.80
2020,03,03,16,01,4.80
2020,03,03,16,02,6.40
2020,03,03,16,03,4.80
2020,03,03,16,04,4.80
2020,03,03,16,05,1.60
2020,03,03,16,06,4.80
2020,03,03,16,07,3.20
2020,03,03,16,08,3.20
2020,03,03,16,09,1.60
2020,03,03,16,10,1.60
2020,03,03,16,13,6.40
2020,03,03,16,14,8.10
2020,03,03,16,15,9.60
2020,03,03,16,16,8.10
2020,03,03,16,17,6.40
2020,03,03,16,18,3.20
2020,03,03,16,19,9.60
2020,03,03,16,20,8.10
2020,03,03,16,21,3.20
2020,03,03,16,22,1.60
2020,03,03,16,23,1.60
2020,03,03,16,24,4.80
2020,03,03,16,25,6.40
2020,03,03,16,26,3.20
2020,03,03,16,27,3.20
2020,03,03,16,28,4.80
2020,03,03,16,29,3.20
2020,03,03,16,30,1.60
2020,03,03,16,31,4.80
2020,03,03,16,32,4.80
2020,03,03,16,33,8.10
2020,03,03,16,35,1.60
2020,03,03,16,36,6.40
2020,03,03,16,37,8.10
2020,03,03,16,38,3.20
2020,03,03,16,39,6.40
2020,03,03,16,40,6.40
2020,03,03,16,41,1.60
2020,03,03,16,42,3.20
2020,03,03,16,43,3.20
2020,03,03,16,44,3.20
2020,03,03,16,45,4.80
2020,03,03,16,46,4.80
2020,03,03,16,47,3.20
2020,03,03,16,48,1.60
2020,03,03,16,49,6.40
2020,03,03,16,50,3.20
2020,03,03,16,52,1.60
2020,03,03,16,53,1.60
2020,03,03,16,54,1.60
2020,03,03,16,55,1.60
2020,03,03,16,56,3.20
2020,03,03,16,57,3.20
2020,03,03,16,58,3.20
2020,03,03,16,59,3.20
2020,03,03,17,00,1.60
2020,03,03,17,01,1.60
2020,03,03,17,02,1.60
2020,03,03,17,04,1.60
2020,03,03,17,05,4.80
2020,03,03,17,06,3.20
2020,03,03,17,09,1.60
2020,03,03,17,10,3.20
2020,03,03,17,12,1.60
2020,03,03,17,13,1.60
2020,03,03,17,21,1.60
2020,03,03,17,22,1.60
2020,03,03,17,23,1.60
2020,03,03,17,24,1.60
2020,03,03,17,26,1.60
2020,03,03,17,30,1.60
2020,03,03,17,31,4.80
2020,03,03,17,32,1.60
2020,03,03,17,33,4.80
2020,03,03,17,34,6.40
2020,03,03,17,35,6.40
2020,03,03,17,36,1.60
2020,03,03,17,37,1.60
2020,03,03,17,38,1.60
2020,03,03,17,39,1.60
2020,03,03,17,41,1.60
2020,03,03,17,42,1.60
2020,03,03,17,43,3.20
2020,03,03,17,44,1.60
2020,03,03,17,45,1.60
2020,03,03,17,46,3.20
2020,03,03,17,47,3.20
2020,03,03,17,48,1.60
2020,03,03,17,49,3.20
2020,03,03,17,50,3.20
2020,03,03,17,51,1.60
2020,03,03,17,52,1.60
2020,03,03,17,54,9.60
2020,03,03,17,55,11.30
2020,03,03,17,56,6.40
2020,03,03,17,57,4.80
2020,03,03,17,58,8.10
2020,03,03,17,59,9.60
2020,03,03,18,00,8.10
2020,03,03,18,01,11.30
2020,03,03,18,02,9.60
2020,03,03,18,03,9.60
2020,03,03,18,04,4.80
2020,03,03,18,05,3.20
2020,03,03,18,06,1.60
2020,03,03,18,07,8.10
2020,03,03,18,08,6.40
2020,03,03,18,09,6.40
2020,03,03,18,10,3.20
2020,03,03,18,11,3.20
2020,03,03,18,12,4.80
2020,03,03,18,13,4.80
2020,03,03,18,14,3.20
2020,03,03,18,15,4.80
2020,03,03,18,16,8.10
2020,03,03,18,17,6.40
2020,03,03,18,18,8.10
2020,03,03,18,19,6.40
2020,03,03,18,20,4.80
2020,03,03,18,21,1.60
2020,03,03,18,22,3.20
2020,03,03,18,23,4.80
2020,03,03,18,24,8.10
2020,03,03,18,25,11.30
2020,03,03,18,26,9.60
2020,03,03,18,27,16.10
2020,03,03,18,28,12.90
2020,03,03,18,29,6.40
2020,03,03,18,30,14.50
2020,03,03,18,31,30.60
2020,03,03,18,32,20.90
2020,03,03,18,33,20.90
2020,03,03,18,34,14.50
2020,03,03,18,35,27.40
2020,03,03,18,36,25.70
2020,03,03,18,37,22.50
2020,03,03,18,38,33.80
2020,03,03,18,39,29.00
2020,03,03,18,40,27.40
2020,03,03,18,41,22.50
2020,03,03,18,42,20.90
2020,03,03,18,43,25.70
2020,03,03,18,44,22.50
2020,03,03,18,45,22.50
2020,03,03,18,46,24.20
2020,03,03,18,47,27.40
2020,03,03,18,48,33.80
2020,03,03,18,49,24.20
2020,03,03,18,50,35.40
2020,03,03,18,51,17.70
2020,03,03,18,52,19.30
2020,03,03,18,53,20.90
2020,03,03,18,54,20.90
2020,03,03,18,55,24.20
2020,03,03,18,56,17.70
2020,03,03,18,57,11.30
2020,03,03,18,58,14.50
2020,03,03,18,59,16.10
2020,03,03,19,00,16.10
2020,03,03,19,01,11.30
2020,03,03,19,02,12.90
2020,03,03,19,03,14.50
2020,03,03,19,04,12.90
2020,03,03,19,05,8.10
2020,03,03,19,06,9.60
2020,03,03,19,07,8.10
2020,03,03,19,08,14.50
2020,03,03,19,09,14.50
2020,03,03,19,10,17.70
2020,03,03,19,11,22.50
2020,03,03,19,12,12.90
2020,03,03,19,13,16.10
2020,03,03,19,14,16.10
2020,03,03,19,15,11.30
2020,03,03,19,16,9.60
2020,03,03,19,17,11.30
2020,03,03,19,18,9.60
2020,03,03,19,19,6.40
2020,03,03,19,20,6.40
2020,03,03,19,21,19.30
2020,03,03,19,22,27.40
2020,03,03,19,23,16.10
2020,03,03,19,24,6.40
2020,03,03,19,25,6.40
2020,03,03,19,26,8.10
2020,03,03,19,27,4.80
2020,03,03,19,28,4.80
2020,03,03,19,29,6.40
2020,03,03,19,30,3.20
2020,03,03,19,31,17.70
2020,03,03,19,32,9.60
2020,03,03,19,33,9.60
2020,03,03,19,34,4.80
2020,03,03,19,35,4.80
2020,03,03,19,36,11.30
2020,03,03,19,37,20.90
2020,03,03,19,38,19.30
2020,03,03,19,39,11.30
2020,03,03,19,40,8.10
2020,03,03,19,41,6.40
2020,03,03,19,42,11.30
2020,03,03,19,43,3.20
2020,03,03,19,44,4.80
2020,03,03,19,45,9.60
2020,03,03,19,46,9.60
2020,03,03,19,47,12.90
2020,03,03,19,48,8.10
2020,03,03,19,49,11.30
2020,03,03,19,50,11.30
2020,03,03,19,51,6.40
2020,03,03,19,52,11.30
2020,03,03,19,53,20.90
2020,03,03,19,54,17.70
2020,03,03,19,55,19.30
2020,03,03,19,56,14.50
2020,03,03,19,57,17.70
2020,03,03,19,58,17.70
2020,03,03,19,59,8.10
2020,03,03,20,00,16.10
2020,03,03,20,01,9.60
2020,03,03,20,02,8.10
2020,03,03,20,03,9.60
2020,03,03,20,04,8.10
2020,03,03,20,05,6.40
2020,03,03,20,06,3.20
2020,03,03,20,07,6.40
2020,03,03,20,08,9.60
2020,03,03,20,09,8.10
2020,03,03,20,10,9.60
2020,03,03,20,11,6.40
2020,03,03,20,12,11.30
2020,03,03,20,13,14.50
2020,03,03,20,14,20.90
2020,03,03,20,15,20.90
2020,03,03,20,16,16.10
2020,03,03,20,17,19.30
2020,03,03,20,18,17.70
2020,03,03,20,19,3.20
2020,03,03,20,20,8.10
2020,03,03,20,21,9.60
2020,03,03,20,22,9.60
2020,03,03,20,23,4.80
2020,03,03,20,24,9.60
2020,03,03,20,25,4.80
2020,03,03,20,26,8.10
2020,03,03,20,27,14.50
2020,03,03,20,28,14.50
2020,03,03,20,29,8.10
2020,03,03,20,30,9.60
2020,03,03,20,31,8.10
2020,03,03,20,32,14.50
2020,03,03,20,33,14.50
2020,03,03,20,34,19.30
2020,03,03,20,35,16.10
2020,03,03,20,36,20.90
2020,03,03,20,37,25.70
2020,03,03,20,38,19.30
2020,03,03,20,39,16.10
2020,03,03,20,40,20.90
2020,03,03,20,41,11.30
2020,03,03,20,42,22.50
2020,03,03,20,43,19.30
2020,03,03,20,44,20.90
2020,03,03,20,45,22.50
2020,03,03,20,46,19.30
2020,03,03,20,47,11.30
2020,03,03,20,48,17.70
2020,03,03,20,49,16.10
2020,03,03,20,50,11.30
2020,03,03,20,51,16.10
2020,03,03,20,52,17.70
2020,03,03,20,53,19.30
2020,03,03,20,54,17.70
2020,03,03,20,55,16.10
2020,03,03,20,56,22.50
2020,03,03,20,57,9.60
2020,03,03,20,58,24.20
2020,03,03,20,59,11.30
2020,03,03,21,00,9.60
2020,03,03,21,01,25.70
2020,03,03,21,02,22.50
2020,03,03,21,03,11.30
2020,03,03,21,04,16.10
2020,03,03,21,05,16.10
2020,03,03,21,06,17.70
2020,03,03,21,07,16.10
2020,03,03,21,08,11.30
2020,03,03,21,09,4.80
2020,03,03,21,10,19.30
2020,03,03,21,11,8.10
2020,03,03,21,12,9.60
2020,03,03,21,13,8.10
2020,03,03,21,14,9.60
2020,03,03,21,15,4.80
2020,03,03,21,16,8.10
2020,03,03,21,17,17.70
2020,03,03,21,18,16.10
2020,03,03,21,19,20.90
2020,03,03,21,20,14.50
2020,03,03,21,21,24.20
2020,03,03,21,22,24.20
2020,03,03,21,23,12.90
2020,03,03,21,24,27.40
2020,03,03,21,25,24.20
2020,03,03,21,26,25.70
2020,03,03,21,27,16.10
2020,03,03,21,28,22.50
2020,03,03,21,29,27.40
2020,03,03,21,30,29.00
2020,03,03,21,31,45.10
2020,03,03,21,32,30.60
2020,03,03,21,33,29.00
2020,03,03,21,34,20.90
2020,03,03,21,35,27.40
2020,03,03,21,36,29.00
2020,03,03,21,37,25.70
2020,03,03,21,38,30.60
2020,03,03,21,39,16.10
2020,03,03,21,40,25.70
2020,03,03,21,41,33.80
2020,03,03,21,42,24.20
2020,03,03,21,43,46.70
2020,03,03,21,44,37.00
2020,03,03,21,45,25.70
2020,03,03,21,46,37.00
2020,03,03,21,47,27.40
2020,03,03,21,48,29.00
2020,03,03,21,49,33.80
2020,03,03,21,50,40.20
2020,03,03,21,51,37.00
2020,03,03,21,52,32.20
2020,03,03,21,53,33.80
2020,03,03,21,54,27.40
2020,03,03,21,55,29.00
2020,03,03,21,56,30.60
2020,03,03,21,57,43.50
2020,03,03,21,58,49.90
2020,03,03,21,59,46.70
2020,03,03,22,00,29.00
2020,03,03,22,01,22.50
2020,03,03,22,02,41.80
2020,03,03,22,03,32.20
2020,03,03,22,04,48.30
2020,03,03,22,05,30.60
2020,03,03,22,06,25.70
2020,03,03,22,07,25.70
2020,03,03,22,08,35.40
2020,03,03,22,09,27.40
2020,03,03,22,10,37.00
2020,03,03,22,11,27.40
2020,03,03,22,12,29.00
2020,03,03,22,13,19.30
2020,03,03,22,14,53.10
2020,03,03,22,15,27.40
2020,03,03,22,16,19.30
2020,03,03,22,17,24.20
2020,03,03,22,18,30.60
2020,03,03,22,19,30.60
2020,03,03,22,20,20.90
2020,03,03,22,21,37.00
2020,03,03,22,22,27.40
2020,03,03,22,23,27.40
2020,03,03,22,24,25.70
2020,03,03,22,25,11.30
2020,03,03,22,26,24.20
2020,03,03,22,27,14.50
2020,03,03,22,28,16.10
2020,03,03,22,29,19.30
2020,03,03,22,30,20.90
2020,03,03,22,31,20.90
2020,03,03,22,32,19.30
2020,03,03,22,33,27.40
2020,03,03,22,34,27.40
2020,03,03,22,35,22.50
2020,03,03,22,36,20.90
2020,03,03,22,37,19.30
2020,03,03,22,38,29.00
2020,03,03,22,39,20.90
2020,03,03,22,40,16.10
2020,03,03,22,41,25.70
2020,03,03,22,42,16.10
2020,03,03,22,43,20.90
2020,03,03,22,44,16.10
2020,03,03,22,45,11.30
2020,03,03,22,46,35.40
2020,03,03,22,47,22.50
2020,03,03,22,48,25.70
2020,03,03,22,49,27.40
2020,03,03,22,50,20.90
2020,03,03,22,51,8.10
2020,03,03,22,52,19.30
2020,03,03,22,53,17.70
2020,03,03,22,54,16.10
2020,03,03,22,55,16.10
2020,03,03,22,56,12.90
2020,03,03,22,57,22.50
2020,03,03,22,58,19.30
2020,03,03,22,59,24.20
2020,03,03,23,00,25.70
2020,03,03,23,01,22.50
2020,03,03,23,02,19.30
2020,03,03,23,03,24.20
2020,03,03,23,04,14.50
2020,03,03,23,05,22.50
2020,03,03,23,06,17.70
2020,03,03,23,07,17.70
2020,03,03,23,08,20.90
2020,03,03,23,09,22.50
2020,03,03,23,10,35.40
2020,03,03,23,11,30.60
2020,03,03,23,12,25.70
2020,03,03,23,13,20.90
2020,03,03,23,14,17.70
2020,03,03,23,15,19.30
2020,03,03,23,16,17.70
2020,03,03,23,17,25.70
2020,03,03,23,18,24.20
2020,03,03,23,19,25.70
2020,03,03,23,20,25.70
2020,03,03,23,21,14.50